MST,Max TemperatureF,Mean TemperatureF,Min TemperatureF,Max Dew PointF,MeanDew PointF,Min DewpointF,Max Humidity, Mean Humidity, Min Humidity, Max Sea Level PressureIn, Mean Sea Level PressureIn, Min Sea Level PressureIn, Max VisibilityMiles, Mean VisibilityMiles, Min VisibilityMiles, Max Wind SpeedMPH, Mean Wind SpeedMPH, Max Gust SpeedMPH,PrecipitationIn, CloudCover, Events, WindDirDegrees
2012-11-1,67,55,43,34,29,23,62,42,21,29.91,29.79,29.69,10,10,10,23,13,28,0.00,1,,208
2012-11-2,57,42,26,37,31,24,100,66,32,30.19,30.02,29.80,10,10,7,26,10,32,0.00,3,,308
2012-11-3,59,43,26,32,27,22,92,58,24,30.19,30.13,30.06,10,10,10,18,8,23,0.00,0,,200
2012-11-4,53,45,37,38,31,23,79,58,36,30.26,30.15,30.02,10,10,10,28,11,33,T,6,,289
2012-11-5,65,50,34,39,35,32,92,62,31,30.24,30.09,29.96,10,10,10,24,11,29,0.00,2,,267
2012-11-6,60,42,24,37,30,23,100,67,33,30.27,30.16,29.99,10,10,10,18,7,22,0.00,0,,228
2012-11-7,73,56,39,34,25,20,65,40,14,29.96,29.80,29.66,10,10,10,26,12,35,0.00,0,,227
2012-11-8,54,39,23,31,27,21,88,63,38,30.02,29.88,29.73,10,10,10,28,11,36,0.00,0,,124
2012-11-9,42,36,29,36,31,28,100,84,67,29.72,29.64,29.60,10,8,1,39,18,45,0.07,7,Rain-Snow,304
2012-11-10,29,13,-3,28,17,1,100,90,80,30.11,29.77,29.60,10,4,0,25,16,32,0.08,8,Fog-Snow,325
2012-11-11,20,9,-2,12,6,-3,91,82,73,30.29,30.16,29.90,10,10,10,20,12,24,0.00,2,,267
2012-11-12,36,24,11,23,15,5,73,65,56,30.32,30.26,30.12,10,10,10,20,13,25,0.00,0,,218
2012-11-13,45,34,23,29,24,19,92,71,49,30.30,30.24,30.18,10,10,10,14,5,16,0.00,2,,199
2012-11-14,49,35,21,29,25,20,85,64,42,30.27,30.17,30.08,10,10,10,14,7,17,0.00,1,,248
2012-11-15,49,36,22,29,25,22,92,66,39,30.39,30.29,30.12,10,10,10,22,9,28,0.00,0,,180
2012-11-16,59,44,28,28,24,18,69,48,26,30.10,29.99,29.87,10,10,10,22,10,25,0.00,1,,207
2012-11-17,57,45,32,33,26,22,76,52,27,30.06,29.97,29.85,10,10,10,21,10,26,0.00,0,,217
2012-11-18,63,44,25,34,31,25,85,56,27,30.04,29.83,29.71,10,10,10,29,14,37,0.00,0,,239
2012-11-19,58,41,23,31,27,21,100,64,28,30.15,30.08,29.99,10,10,10,21,8,25,0.00,0,,191
2012-11-20,65,51,36,32,29,28,76,51,26,30.00,29.92,29.80,10,10,10,37,19,44,0.00,0,,219
2012-11-21,67,51,34,33,27,24,82,51,20,29.85,29.71,29.59,10,10,10,37,20,45,0.00,0,,237
2012-11-22,39,24,9,33,24,9,100,74,48,30.60,30.19,29.85,10,7,1,25,12,32,0.07,3,Snow,297
2012-11-23,49,29,9,21,17,9,92,58,23,30.58,30.35,30.01,10,10,10,21,11,26,0.00,0,,191
2012-11-24,56,46,36,32,26,19,82,55,28,29.98,29.93,29.88,10,10,10,23,10,29,0.00,5,,309
2012-11-25,37,32,26,34,30,25,100,95,89,30.24,30.00,29.92,10,4,1,14,5,15,0.25,8,Snow,34
2012-11-26,27,19,11,25,21,10,100,91,81,30.43,30.28,30.15,10,6,0,18,7,77,0.07,5,Fog-Snow,199
2012-11-27,39,22,4,24,14,3,96,75,54,30.34,30.24,30.04,10,10,10,15,3,16,0.00,0,,180
2012-11-28,48,36,23,30,25,15,85,67,49,30.17,30.06,29.85,10,10,10,22,8,29,0.00,0,,189
2012-11-29,54,43,32,33,29,24,89,65,41,29.99,29.89,29.78,10,10,10,29,10,35,0.00,1,,229
2012-11-30,56,45,34,32,30,25,70,54,38,29.91,29.74,29.59,10,10,10,32,19,40,0.00,0,,213